QPF
0.00 0.00 0.00 0.00 0.00 0.00 0.00 0.00 0.00 0.00 0.00 0.00 0.00 0.00 0.00 0.00 0.00 0.00 0.00 0.00 0.00 0.00 0.00 0.00 0.00 0.00 0.00 0.00 0.00 0.00 0.00 0.00 0.00 0.00 0.00 0.00 0.00 0.00 0.00 0.00 0.00 0.00 0.00 0.00 0.00
0.00 0.00 0.00 0.00 0.00 0.00 0.00 0.00 0.00 0.00 0.00 0.00 0.00 0.00 0.00 0.00 0.00 0.00 0.00 0.00 0.00 0.00 0.00 0.00 0.00 0.00 0.00 0.00 0.00 0.00 0.00 0.00 0.00 0.00 0.00 0.00 0.00 0.00 0.00 0.00 0.00 0.00 0.00 0.00 0.00
0.00 0.00 0.00 0.00 0.00 0.00 0.01 0.00 0.00 0.00 0.00 0.00 0.00 0.00 0.00 0.00 0.00 0.00 0.00 0.00 0.00 0.00 0.00 0.00 0.00 0.00 0.00 0.00 0.00 0.00 0.00 0.00 0.00 0.00 0.00 0.00 0.00 0.00 0.00 0.00 0.00 0.00 0.00 0.00 0.00
0.00 0.00 0.00 0.00 0.00 0.01 0.01 0.00 0.00 0.00 0.00 0.00 0.00 0.00 0.00 0.00 0.00 0.00 0.00 0.00 0.00 0.00 0.00 0.00 0.00 0.00 0.00 0.00 0.00 0.00 0.00 0.00 0.00 0.00 0.00 0.00 0.00 0.00 0.00 0.00 0.00 0.00 0.00 0.00 0.00
0.00 0.00 0.00 0.00 0.00 0.01 0.00 0.00 0.00 0.00 0.00 0.00 0.00 0.00 0.00 0.00 0.00 0.00 0.00 0.00 0.00 0.00 0.00 0.00 0.00 0.00 0.00 0.00 0.00 0.00 0.00 0.00 0.00 0.00 0.00 0.00 0.00 0.00 0.00 0.00 0.00 0.00 0.00 0.00 0.00
0.00 0.00 0.00 0.00 0.00 0.00 0.00 0.00 0.00 0.00 0.00 0.00 0.00 0.00 0.00 0.00 0.00 0.00 0.00 0.00 0.00 0.00 0.00 0.00 0.00 0.00 0.00 0.00 0.00 0.00 0.00 0.00 0.00 0.00 0.00 0.00 0.00 0.00 0.00 0.00 0.00 0.00 0.00 0.00 0.00
0.00 0.00 0.00 0.01 0.01 0.00 0.00 0.00 0.00 0.00 0.00 0.00 0.00 0.00 0.00 0.00 0.00 0.00 0.00 0.00 0.00 0.00 0.00 0.00 0.00 0.00 0.00 0.00 0.00 0.00 0.00 0.00 0.00 0.00 0.00 0.00 0.00 0.00 0.00 0.00 0.00 0.00 0.00 0.00 0.00
0.00 0.00 0.00 0.00 0.00 0.00 0.00 0.00 0.00 0.00 0.00 0.00 0.00 0.00 0.00 0.00 0.00 0.00 0.00 0.00 0.00 0.01 0.00 0.00 0.00 0.00 0.00 0.00 0.00 0.00 0.00 0.00 0.00 0.00 0.00 0.00 0.00 0.00 0.00 0.00 0.00 0.00 0.00 0.00 0.00
0.00 0.00 0.00 0.00 0.00 0.00 0.00 0.00 0.00 0.00 0.00 0.00 0.00 0.00 0.00 0.00 0.00 0.00 0.00 0.00 0.06 0.01 0.00 0.00 0.00 0.00 0.00 0.00 0.00 0.00 0.00 0.00 0.00 0.00 0.00 0.00 0.00 0.00 0.00 0.00 0.00 0.00 0.00 0.00 0.00
0.00 0.00 0.01 0.00 0.00 0.00 0.00 0.00 0.00 0.00 0.00 0.00 0.00 0.00 0.00 0.00 0.00 0.00 0.00 0.02 0.04 0.00 0.00 0.00 0.00 0.00 0.00 0.00 0.00 0.00 0.00 0.00 0.00 0.00 0.00 0.00 0.00 0.00 0.00 0.00 0.00 0.00 0.00 0.00 0.00
0.00 0.00 0.01 0.00 0.00 0.00 0.00 0.00 0.00 0.00 0.00 0.00 0.00 0.00 0.00 0.00 0.00 0.00 0.00 0.01 0.01 0.00 0.00 0.00 0.00 0.00 0.00 0.00 0.00 0.00 0.00 0.00 0.00 0.00 0.00 0.00 0.00 0.00 0.00 0.00 0.00 0.00 0.00 0.00 0.00
0.00 0.01 0.01 0.01 0.00 0.00 0.00 0.00 0.00 0.00 0.00 0.00 0.00 0.00 0.00 0.00 0.00 0.00 0.00 0.02 0.00 0.00 0.00 0.00 0.00 0.00 0.00 0.00 0.00 0.00 0.00 0.00 0.00 0.00 0.00 0.00 0.00 0.00 0.00 0.00 0.00 0.00 0.00 0.00 0.00
0.00 0.01 0.00 0.00 0.00 0.00 0.00 0.00 0.00 0.00 0.00 0.00 0.00 0.00 0.00 0.00 0.00 0.00 0.00 0.00 0.00 0.00 0.00 0.00 0.00 0.00 0.00 0.00 0.00 0.00 0.00 0.00 0.00 0.00 0.00 0.00 0.00 0.00 0.00 0.00 0.00 0.00 0.00 0.00 0.00
0.00 0.00 0.00 0.00 0.00 0.00 0.00 0.00 0.00 0.00 0.00 0.00 0.00 0.00 0.00 0.00 0.00 0.00 0.00 0.00 0.00 0.00 0.00 0.00 0.00 0.00 0.00 0.00 0.00 0.00 0.00 0.00 0.00 0.00 0.00 0.00 0.00 0.00 0.00 0.00 0.00 0.00 0.00 0.00 0.00
0.00 0.01 0.01 0.00 0.00 0.00 0.00 0.00 0.00 0.00 0.00 0.00 0.00 0.00 0.00 0.00 0.00 0.00 0.00 0.00 0.00 0.00 0.00 0.00 0.00 0.00 0.00 0.00 0.00 0.00 0.00 0.00 0.00 0.00 0.00 0.00 0.00 0.00 0.00 0.00 0.00 0.00 0.00 0.00 0.00
0.00 0.01 0.01 0.00 0.00 0.00 0.00 0.00 0.00 0.00 0.00 0.00 0.00 0.00 0.00 0.00 0.00 0.00 0.00 0.00 0.00 0.00 0.00 0.00 0.00 0.00 0.00 0.00 0.00 0.00 0.00 0.00 0.00 0.00 0.00 0.00 0.00 0.00 0.00 0.00 0.00 0.00 0.00 0.00 0.00
0.00 0.00 0.00 0.00 0.00 0.00 0.00 0.00 0.00 0.00 0.00 0.00 0.00 0.00 0.00 0.00 0.00 0.00 0.00 0.00 0.00 0.00 0.00 0.00 0.00 0.00 0.00 0.00 0.00 0.00 0.00 0.00 0.00 0.00 0.00 0.00 0.00 0.00 0.00 0.00 0.00 0.00 0.00 0.00 0.00
0.00 0.00 0.00 0.00 0.00 0.00 0.00 0.00 0.00 0.00 0.00 0.00 0.00 0.00 0.00 0.00 0.00 0.00 0.00 0.00 0.00 0.00 0.00 0.00 0.00 0.00 0.00 0.00 0.00 0.00 0.00 0.00 0.00 0.00 0.00 0.00 0.00 0.00 0.00 0.00 0.00 0.00 0.00 0.00 0.00
0.00 0.00 0.00 0.00 0.00 0.00 0.00 0.00 0.00 0.00 0.00 0.00 0.00 0.00 0.00 0.00 0.00 0.00 0.00 0.00 0.00 0.00 0.00 0.00 0.00 0.00 0.00 0.00 0.00 0.00 0.00 0.00 0.00 0.00 0.00 0.00 0.00 0.00 0.00 0.00 0.00 0.00 0.00 0.00 0.00
0.00 0.00 0.00 0.00 0.00 0.00 0.00 0.00 0.00 0.00 0.00 0.00 0.00 0.00 0.00 0.00 0.00 0.00 0.00 0.00 0.00 0.00 0.00 0.00 0.00 0.00 0.00 0.00 0.00 0.00 0.00 0.00 0.00 0.00 0.00 0.00 0.00 0.00 0.00 0.00 0.00 0.00 0.00 0.00 0.00
0.00 0.00 0.00 0.00 0.00 0.00 0.00 0.00 0.00 0.00 0.00 0.00 0.00 0.00 0.00 0.00 0.00 0.00 0.00 0.00 0.00 0.00 0.00 0.00 0.00 0.00 0.00 0.00 0.00 0.00 0.00 0.00 0.00 0.00 0.00 0.00 0.00 0.00 0.00 0.00 0.00 0.00 0.00 0.00 0.00
0.00 0.00 0.00 0.00 0.00 0.00 0.00 0.00 0.00 0.00 0.00 0.00 0.00 0.00 0.00 0.00 0.00 0.00 0.00 0.00 0.00 0.00 0.00 0.00 0.00 0.00 0.00 0.00 0.00 0.00 0.00 0.00 0.00 0.00 0.00 0.00 0.00 0.00 0.00 0.00 0.00 0.00 0.00 0.00 0.00
0.00 0.00 0.00 0.00 0.00 0.00 0.00 0.00 0.00 0.00 0.00 0.00 0.00 0.00 0.00 0.00 0.00 0.00 0.00 0.00 0.00 0.00 0.00 0.00 0.00 0.00 0.00 0.00 0.00 0.00 0.00 0.00 0.00 0.00 0.00 0.00 0.00 0.00 0.00 0.00 0.00 0.00 0.01 0.02 0.01
0.00 0.00 0.00 0.00 0.00 0.00 0.00 0.00 0.00 0.00 0.00 0.00 0.00 0.00 0.00 0.00 0.00 0.00 0.00 0.00 0.00 0.00 0.00 0.00 0.00 0.00 0.00 0.00 0.00 0.00 0.00 0.00 0.00 0.00 0.00 0.00 0.00 0.00 0.00 0.00 0.00 0.00 0.01 0.01 0.00
0.00 0.00 0.00 0.00 0.00 0.00 0.00 0.00 0.00 0.00 0.00 0.00 0.00 0.00 0.00 0.00 0.00 0.00 0.00 0.00 0.00 0.00 0.00 0.00 0.00 0.00 0.00 0.00 0.00 0.00 0.00 0.00 0.00 0.00 0.00 0.00 0.00 0.00 0.00 0.00 0.00 0.01 0.01 0.00 0.00
0.00 0.00 0.00 0.00 0.00 0.00 0.00 0.00 0.00 0.00 0.00 0.00 0.00 0.00 0.00 0.00 0.00 0.00 0.00 0.00 0.00 0.00 0.00 0.00 0.00 0.00 0.00 0.00 0.00 0.00 0.00 0.00 0.00 0.00 0.00 0.00 0.00 0.00 0.00 0.00 0.01 0.00 0.00 0.00 0.00
0.00 0.00 0.00 0.00 0.00 0.00 0.00 0.00 0.00 0.00 0.00 0.00 0.00 0.00 0.00 0.00 0.00 0.00 0.00 0.00 0.00 0.00 0.00 0.00 0.00 0.00 0.00 0.00 0.00 0.00 0.00 0.00 0.00 0.00 0.00 0.00 0.00 0.00 0.00 0.00 0.00 0.00 0.00 0.00 0.00
MSLP
1016.57 1016.23 1015.88 1015.48 1015.22 1014.92 1014.59 1014.39 1014.19 1013.99 1013.66 1013.66 1013.53 1013.05 1012.90 1012.60 1012.11 1011.79 1010.38 1009.26 1009.66 1010.22 1010.40 1010.55 1010.60 1010.63 1010.73 1010.72 1010.92 1010.97 1010.31 1009.91 1009.71 1009.91 1010.56 1011.27 1011.76 1012.78 1013.10 1013.40 1013.81 1014.30 1014.46 1015.15 1016.27
1016.56 1016.21 1015.84 1015.41 1015.09 1014.85 1014.53 1014.19 1014.07 1013.96 1013.57 1013.69 1013.33 1013.09 1012.76 1012.55 1011.86 1010.51 1008.92 1009.06 1009.42 1010.00 1010.31 1010.32 1010.40 1010.70 1010.58 1010.71 1010.78 1010.55 1010.02 1009.53 1009.40 1009.60 1010.16 1011.02 1011.63 1012.39 1012.93 1013.43 1014.11 1014.50 1015.12 1015.85 1016.46
1016.52 1016.14 1015.74 1015.35 1014.97 1014.75 1014.41 1014.05 1014.00 1013.78 1013.65 1013.55 1013.22 1013.01 1012.97 1012.57 1011.32 1008.96 1008.64 1009.22 1009.72 1009.96 1010.08 1010.20 1010.43 1010.48 1010.30 1010.52 1010.58 1010.37 1009.74 1009.37 1009.19 1009.45 1010.21 1011.04 1011.77 1012.27 1012.74 1013.25 1013.77 1013.97 1014.86 1015.81 1016.27
1016.43 1015.99 1015.62 1015.21 1014.90 1014.60 1014.27 1013.89 1013.87 1013.62 1013.54 1013.32 1013.09 1012.95 1012.82 1012.38 1010.50 1008.43 1008.71 1009.42 1009.93 1009.99 1010.20 1010.41 1010.38 1010.25 1010.10 1010.17 1010.31 1009.97 1009.66 1009.47 1009.34 1009.73 1010.43 1011.04 1011.70 1012.26 1012.56 1012.75 1013.47 1014.56 1015.19 1015.71 1016.14
1016.32 1015.87 1015.51 1015.05 1014.78 1014.39 1014.08 1013.81 1013.54 1013.46 1013.33 1013.18 1012.88 1012.71 1012.43 1011.35 1009.32 1008.71 1009.04 1009.80 1010.18 1010.23 1010.12 1010.27 1010.26 1010.12 1009.94 1010.12 1010.20 1009.84 1009.60 1009.35 1009.72 1010.12 1010.68 1011.31 1011.81 1012.11 1012.89 1013.26 1013.95 1014.81 1015.48 1015.66 1015.89
1016.22 1015.76 1015.34 1014.87 1014.55 1014.15 1013.83 1013.65 1013.29 1013.16 1013.12 1012.95 1012.69 1012.61 1011.78 1010.14 1008.80 1008.88 1009.14 1009.95 1009.97 1010.11 1010.00 1010.11 1010.23 1010.17 1009.89 1010.05 1010.05 1009.83 1009.54 1009.79 1010.33 1010.62 1011.19 1011.54 1012.10 1012.33 1013.38 1013.77 1014.31 1014.88 1015.36 1015.66 1015.82
1016.08 1015.61 1015.10 1014.70 1014.29 1013.90 1013.52 1013.36 1013.02 1012.74 1012.79 1012.53 1012.45 1012.19 1010.94 1009.58 1008.91 1009.05 1009.51 1009.86 1009.97 1009.93 1009.84 1009.82 1010.01 1010.00 1010.03 1010.06 1010.24 1009.71 1009.53 1010.11 1010.68 1010.90 1011.41 1011.65 1012.21 1012.50 1013.30 1013.93 1014.28 1014.80 1015.14 1015.45 1015.77
1015.85 1015.37 1014.85 1014.46 1013.98 1013.62 1013.23 1013.02 1012.54 1012.19 1012.19 1012.14 1012.19 1011.72 1010.11 1009.26 1009.05 1009.39 1009.75 1010.05 1010.20 1010.14 1010.03 1009.91 1010.04 1010.17 1010.27 1010.32 1010.09 1009.67 1009.86 1010.17 1010.83 1010.89 1011.42 1011.60 1011.54 1012.56 1013.21 1013.60 1014.12 1014.62 1015.07 1015.27 1015.47
1015.55 1015.08 1014.54 1014.11 1013.67 1013.32 1012.92 1012.64 1012.02 1011.81 1011.84 1011.91 1011.86 1010.90 1009.82 1009.57 1009.28 1009.60 1009.70 1009.80 1010.26 1010.18 1010.02 1010.02 1010.33 1010.32 1010.31 1010.08 1009.87 1009.96 1009.83 1010.20 1010.57 1010.70 1011.05 1011.36 1011.52 1012.31 1013.14 1013.45 1013.77 1014.27 1014.70 1015.05 1015.26
1015.25 1014.73 1014.24 1013.80 1013.49 1013.06 1012.63 1012.26 1011.86 1011.79 1011.73 1011.50 1011.01 1010.49 1009.73 1008.94 1009.02 1009.44 1009.75 1009.72 1010.12 1010.08 1009.98 1010.06 1010.24 1010.25 1010.38 1010.19 1009.89 1009.79 1009.94 1010.27 1010.40 1010.81 1011.05 1011.34 1011.46 1011.95 1012.59 1012.98 1013.25 1013.66 1014.18 1014.62 1014.78
1015.01 1014.44 1014.02 1013.63 1013.23 1012.91 1012.46 1011.93 1011.99 1011.61 1010.88 1010.11 1009.57 1008.99 1008.49 1008.53 1008.76 1009.27 1009.47 1009.75 1009.86 1009.94 1009.64 1010.09 1010.24 1009.94 1009.96 1009.65 1009.47 1009.77 1010.03 1010.13 1010.59 1011.11 1011.16 1011.25 1011.34 1011.63 1012.07 1012.48 1012.75 1013.14 1013.48 1013.88 1013.98
1014.78 1014.18 1013.73 1013.33 1012.99 1012.65 1012.54 1011.13 1010.61 1010.45 1009.94 1009.40 1009.17 1008.61 1008.31 1008.06 1008.34 1008.94 1009.15 1009.36 1009.42 1009.33 1009.67 1009.79 1009.51 1009.34 1009.37 1009.43 1009.38 1009.42 1009.78 1010.21 1010.92 1011.30 1011.18 1011.35 1010.87 1011.06 1011.45 1011.37 1011.57 1012.05 1012.54 1012.87 1013.23
1014.46 1013.95 1013.50 1013.11 1012.83 1012.65 1011.69 1010.56 1010.20 1010.04 1009.59 1009.00 1008.59 1008.04 1007.77 1007.75 1007.64 1008.32 1008.72 1008.83 1008.88 1009.08 1009.12 1009.11 1009.01 1009.07 1009.22 1009.23 1009.33 1009.05 1009.41 1009.88 1010.63 1011.23 1011.55 1011.26 1010.22 1010.36 1010.68 1011.03 1011.33 1011.44 1011.69 1012.02 1012.38
1014.23 1013.69 1013.29 1012.86 1012.95 1011.82 1010.84 1010.18 1010.18 1009.99 1009.24 1008.76 1008.07 1007.25 1007.58 1007.41 1007.51 1007.65 1007.97 1008.17 1008.51 1008.56 1008.96 1008.95 1008.52 1008.56 1008.81 1008.94 1009.22 1009.24 1009.58 1009.99 1010.53 1011.08 1011.40 1011.54 1010.55 1010.02 1009.92 1010.01 1010.50 1010.69 1010.93 1010.90 1011.22
1013.79 1013.37 1013.03 1012.95 1012.19 1011.33 1010.59 1010.17 1010.02 1009.62 1008.60 1008.12 1007.53 1007.23 1007.23 1007.13 1007.08 1007.53 1007.57 1007.65 1007.77 1008.07 1008.60 1008.31 1008.12 1008.16 1008.28 1008.53 1009.03 1009.54 1009.67 1010.25 1010.78 1011.13 1011.43 1011.69 1011.35 1009.51 1009.73 1009.45 1009.62 1009.94 1010.08 1010.35 1010.32
1013.26 1012.91 1012.78 1012.71 1012.43 1010.62 1010.41 1010.09 1009.83 1009.32 1008.12 1007.46 1007.07 1007.02 1007.02 1006.97 1006.90 1007.40 1007.54 1007.74 1007.81 1007.91 1008.12 1007.99 1007.92 1008.01 1007.86 1008.63 1008.85 1009.59 1010.09 1010.57 1011.01 1011.20 1011.00 1010.69 1010.99 1008.90 1009.01 1009.38 1009.38 1009.46 1009.53 1009.61 1010.03
1012.50 1012.18 1012.31 1011.67 1011.03 1010.55 1010.19 1009.76 1009.58 1008.74 1008.31 1007.57 1007.08 1007.01 1006.85 1006.91 1007.04 1007.02 1007.30 1007.51 1007.48 1007.72 1007.59 1007.47 1007.23 1007.39 1007.70 1008.64 1009.54 1009.45 1009.43 1009.83 1010.47 1010.72 1010.01 1010.99 1010.94 1009.21 1009.09 1009.75 1010.36 1010.23 1009.65 1009.01 1009.49
1011.96 1011.71 1011.85 1011.36 1010.95 1010.70 1009.86 1009.65 1009.27 1008.64 1007.99 1007.59 1007.31 1007.23 1006.97 1007.08 1007.23 1007.21 1007.28 1007.49 1008.00 1008.04 1007.96 1007.59 1007.21 1007.05 1007.11 1007.14 1007.77 1008.62 1008.78 1008.71 1008.86 1009.39 1009.49 1010.75 1009.56 1008.86 1009.56 1010.33 1010.77 1010.90 1009.77 1009.43 1009.50
1011.66 1011.45 1011.16 1010.80 1010.63 1010.59 1009.85 1009.56 1008.95 1008.61 1008.20 1007.71 1007.45 1007.18 1007.33 1007.39 1007.31 1007.42 1007.57 1007.56 1007.67 1007.98 1008.01 1007.77 1007.31 1007.06 1007.15 1007.26 1007.70 1008.53 1008.59 1008.24 1008.54 1009.55 1009.38 1009.04 1008.93 1008.87 1009.71 1010.43 1011.22 1011.86 1012.16 1012.02 1011.87
1011.50 1010.91 1010.98 1010.78 1010.68 1010.03 1009.82 1009.79 1009.41 1008.97 1008.36 1007.93 1007.43 1007.56 1007.32 1007.47 1007.51 1007.66 1007.78 1007.91 1007.92 1008.11 1008.12 1007.68 1007.32 1006.56 1006.68 1007.00 1007.67 1007.50 1007.84 1008.29 1008.42 1008.18 1008.08 1008.05 1008.54 1008.31 1009.38 1010.49 1012.00 1012.99 1013.50 1013.75 1013.93
1011.34 1010.84 1010.85 1010.67 1010.45 1010.18 1010.16 1010.10 1009.55 1008.75 1008.48 1007.83 1007.55 1007.55 1007.60 1007.51 1007.63 1007.74 1007.92 1008.03 1008.04 1008.34 1008.34 1008.02 1007.77 1006.64 1007.15 1006.58 1006.56 1007.53 1007.46 1008.02 1008.02 1007.94 1007.27 1007.18 1007.41 1008.48 1009.70 1010.93 1012.47 1013.75 1014.47 1014.79 1014.96
1011.61 1011.03 1010.67 1010.50 1010.65 1011.60 1010.85 1010.66 1010.11 1008.89 1008.48 1007.97 1007.80 1007.73 1007.84 1007.98 1007.97 1008.05 1008.01 1008.06 1008.35 1008.27 1008.24 1008.62 1008.09 1007.15 1006.43 1006.98 1007.05 1006.83 1006.61 1007.04 1007.17 1007.41 1007.81 1007.73 1008.10 1009.56 1010.54 1011.79 1013.01 1014.11 1014.84 1015.30 1015.75
1012.73 1012.00 1010.90 1010.58 1011.21 1011.57 1011.26 1010.65 1010.05 1009.18 1008.67 1008.25 1008.10 1008.20 1008.31 1008.45 1008.65 1008.49 1008.40 1008.37 1008.55 1008.55 1008.62 1008.84 1008.66 1007.64 1006.73 1007.23 1007.50 1007.13 1007.25 1007.26 1007.39 1007.53 1007.34 1007.56 1008.24 1010.26 1011.47 1012.45 1013.55 1014.56 1015.38 1016.00 1016.35
1013.31 1012.74 1012.00 1012.05 1012.82 1012.29 1011.84 1011.06 1010.13 1009.48 1009.02 1008.70 1008.51 1008.49 1008.59 1008.90 1009.07 1008.85 1008.63 1008.45 1008.53 1008.70 1008.95 1009.00 1008.91 1008.40 1007.65 1007.66 1007.95 1007.73 1007.80 1007.90 1007.39 1007.14 1006.90 1007.42 1008.19 1010.14 1011.72 1012.84 1014.04 1015.21 1015.99 1016.51 1016.96
1014.31 1014.79 1014.78 1013.67 1013.22 1013.06 1012.65 1011.81 1010.75 1009.82 1009.29 1008.98 1008.75 1008.72 1008.77 1009.10 1009.19 1009.04 1009.01 1008.78 1008.62 1009.14 1009.42 1009.38 1009.00 1009.06 1008.76 1008.82 1008.72 1008.37 1008.31 1008.20 1007.89 1007.72 1007.64 1007.87 1008.72 1009.82 1011.35 1012.72 1014.20 1015.31 1016.03 1016.44 1016.83
1015.68 1015.69 1015.32 1014.72 1014.16 1013.44 1013.11 1012.34 1011.52 1010.75 1010.15 1009.30 1009.03 1009.18 1009.29 1009.29 1009.27 1009.21 1009.27 1009.33 1009.13 1009.54 1009.73 1010.07 1009.56 1009.61 1009.24 1009.33 1009.32 1009.07 1008.89 1008.71 1008.62 1008.57 1008.54 1008.82 1009.20 1010.54 1011.52 1013.10 1014.18 1014.95 1015.56 1016.34 1016.94
1017.15 1016.82 1016.07 1015.21 1014.46 1013.85 1013.42 1012.84 1012.09 1011.66 1010.51 1010.02 1009.68 1009.65 1009.81 1009.92 1009.95 1009.81 1009.84 1009.95 1009.95 1010.05 1010.09 1010.32 1009.93 1009.98 1009.34 1009.71 1009.55 1009.48 1009.48 1009.22 1008.93 1009.13 1009.13 1009.23 1010.22 1011.16 1012.08 1012.91 1013.79 1014.59 1015.46 1015.83 1016.87
Thickness
5749 5754 5758 5762 5765 5768 5772 5775 5777 5779 5782 5783 5784 5789 5792 5795 5799 5801 5803 5819 5818 5815 5815 5814 5812 5812 5813 5806 5808 5806 5792 5779 5785 5785 5785 5797 5789 5794 5798 5788 5789 5788 5787 5788 5782
5750 5754 5759 5763 5767 5769 5773 5777 5779 5780 5785 5785 5786 5789 5793 5796 5801 5803 5824 5825 5823 5818 5813 5808 5802 5807 5804 5803 5803 5797 5789 5790 5804 5803 5796 5799 5797 5792 5789 5785 5780 5781 5786 5785 5780
5750 5755 5760 5764 5768 5771 5775 5779 5780 5783 5786 5787 5789 5790 5791 5795 5801 5813 5829 5824 5821 5820 5817 5815 5812 5808 5803 5805 5802 5799 5792 5806 5810 5812 5808 5798 5795 5800 5790 5779 5784 5782 5783 5782 5780
5751 5756 5761 5766 5770 5773 5777 5781 5782 5785 5787 5790 5791 5791 5792 5795 5784 5825 5829 5824 5821 5820 5816 5809 5805 5800 5800 5798 5808 5795 5808 5809 5810 5813 5804 5797 5801 5793 5795 5795 5798 5790 5787 5784 5779
5751 5757 5762 5768 5771 5775 5779 5783 5785 5787 5789 5792 5793 5794 5796 5796 5804 5828 5827 5822 5819 5818 5810 5804 5798 5802 5797 5802 5805 5800 5806 5814 5811 5809 5806 5804 5794 5795 5790 5798 5797 5790 5784 5783 5783
5752 5758 5764 5770 5774 5778 5782 5785 5788 5790 5792 5795 5796 5795 5799 5792 5826 5828 5827 5822 5821 5816 5810 5810 5804 5810 5805 5803 5802 5809 5813 5808 5805 5802 5800 5793 5791 5797 5790 5796 5790 5787 5783 5782 5783
5753 5759 5766 5772 5776 5780 5785 5788 5791 5794 5796 5798 5799 5801 5804 5804 5828 5828 5825 5820 5822 5820 5811 5821 5819 5810 5809 5800 5810 5814 5803 5805 5802 5802 5792 5800 5781 5785 5794 5794 5787 5785 5786 5785 5783
5754 5761 5768 5774 5779 5784 5788 5791 5795 5800 5801 5803 5802 5805 5805 5825 5828 5825 5823 5817 5820 5823 5821 5826 5824 5812 5804 5810 5808 5805 5804 5784 5797 5803 5799 5799 5779 5788 5796 5792 5786 5786 5785 5786 5785
5757 5763 5771 5777 5782 5786 5791 5794 5800 5803 5804 5805 5806 5808 5803 5826 5818 5825 5827 5815 5815 5820 5824 5826 5815 5804 5805 5795 5792 5794 5778 5780 5785 5806 5798 5795 5783 5793 5795 5792 5787 5787 5786 5786 5786
5760 5767 5773 5779 5784 5789 5794 5798 5802 5804 5805 5808 5811 5806 5811 5813 5823 5825 5829 5826 5812 5815 5810 5808 5800 5790 5787 5785 5767 5778 5778 5783 5784 5796 5798 5790 5790 5795 5795 5794 5790 5791 5788 5786 5786
5762 5769 5775 5780 5786 5790 5796 5801 5802 5801 5807 5810 5812 5813 5818 5828 5834 5821 5828 5820 5818 5810 5795 5798 5786 5782 5789 5797 5800 5795 5786 5783 5790 5794 5791 5789 5791 5794 5797 5796 5793 5792 5790 5788 5791
5765 5772 5778 5784 5788 5792 5794 5807 5808 5810 5801 5813 5813 5817 5825 5832 5812 5818 5831 5808 5807 5795 5799 5795 5781 5803 5808 5801 5802 5802 5789 5784 5786 5791 5792 5786 5793 5801 5801 5803 5804 5799 5796 5796 5796
5767 5774 5780 5786 5789 5792 5801 5809 5814 5815 5799 5807 5815 5818 5822 5828 5816 5811 5822 5813 5804 5795 5796 5789 5799 5811 5803 5799 5793 5800 5792 5792 5785 5787 5787 5788 5795 5797 5806 5808 5807 5808 5807 5805 5802
5769 5776 5782 5787 5791 5798 5805 5813 5814 5815 5787 5794 5806 5820 5823 5826 5811 5831 5831 5818 5805 5795 5795 5790 5812 5805 5799 5794 5800 5785 5803 5799 5791 5782 5767 5782 5764 5791 5803 5805 5807 5809 5808 5809 5811
5773 5778 5783 5785 5797 5801 5807 5811 5814 5813 5757 5798 5806 5832 5824 5817 5819 5815 5835 5821 5800 5799 5799 5793 5799 5800 5794 5799 5804 5790 5804 5794 5788 5778 5775 5770 5765 5797 5800 5801 5805 5812 5818 5817 5818
5777 5781 5784 5786 5788 5805 5806 5810 5809 5776 5754 5791 5808 5804 5805 5811 5813 5814 5815 5824 5819 5803 5802 5801 5816 5809 5809 5805 5808 5802 5790 5784 5780 5776 5760 5780 5772 5796 5805 5804 5810 5818 5819 5822 5821
5782 5785 5785 5790 5799 5802 5805 5803 5769 5757 5784 5782 5790 5798 5798 5794 5798 5803 5797 5793 5788 5773 5781 5797 5803 5811 5813 5786 5791 5792 5785 5762 5751 5750 5764 5767 5762 5795 5813 5810 5803 5805 5816 5828 5828
5784 5787 5787 5790 5794 5797 5801 5781 5746 5766 5773 5789 5787 5787 5785 5790 5788 5790 5789 5784 5786 5784 5773 5767 5768 5798 5809 5805 5792 5783 5787 5770 5740 5749 5768 5759 5767 5798 5804 5803 5803 5806 5821 5827 5826
5784 5786 5788 5791 5792 5793 5787 5755 5761 5764 5777 5777 5780 5776 5775 5782 5785 5782 5779 5779 5786 5785 5767 5762 5766 5799 5800 5803 5801 5775 5768 5795 5765 5749 5751 5774 5782 5803 5798 5797 5797 5792 5790 5790 5796
5785 5787 5783 5786 5787 5790 5772 5748 5759 5769 5776 5777 5766 5769 5764 5771 5774 5772 5767 5779 5778 5783 5787 5781 5762 5798 5799 5802 5792 5790 5794 5765 5763 5737 5733 5763 5759 5786 5792 5793 5783 5775 5774 5774 5776
5786 5780 5782 5784 5785 5774 5754 5751 5758 5775 5776 5774 5768 5764 5766 5767 5770 5766 5766 5777 5782 5778 5780 5779 5772 5787 5784 5785 5788 5776 5773 5768 5770 5762 5756 5755 5774 5793 5786 5785 5773 5768 5766 5765 5766
5781 5767 5782 5783 5764 5737 5749 5747 5755 5768 5773 5772 5773 5769 5765 5763 5761 5760 5761 5770 5780 5782 5773 5770 5769 5763 5779 5784 5787 5788 5787 5784 5762 5755 5755 5760 5771 5780 5780 5775 5768 5762 5760 5760 5756
5764 5761 5777 5777 5748 5744 5745 5748 5752 5758 5760 5764 5761 5763 5763 5756 5750 5755 5758 5774 5774 5771 5763 5763 5753 5750 5769 5775 5775 5775 5775 5777 5771 5765 5758 5759 5773 5767 5764 5762 5759 5752 5748 5742 5741
5758 5753 5758 5753 5735 5737 5732 5738 5743 5756 5754 5756 5755 5759 5754 5746 5746 5745 5752 5764 5769 5767 5755 5759 5745 5746 5746 5758 5759 5759 5762 5763 5772 5763 5769 5768 5772 5755 5750 5749 5745 5736 5732 5731 5727
5743 5729 5725 5732 5734 5726 5724 5728 5732 5737 5750 5752 5749 5748 5745 5734 5735 5735 5741 5749 5759 5749 5747 5749 5736 5733 5740 5740 5744 5748 5751 5755 5755 5761 5759 5764 5757 5758 5751 5745 5734 5726 5722 5723 5720
5731 5725 5722 5720 5716 5722 5715 5719 5721 5729 5732 5737 5737 5738 5737 5731 5733 5727 5733 5732 5737 5739 5734 5729 5727 5724 5727 5731 5732 5733 5741 5746 5748 5746 5748 5748 5752 5749 5749 5733 5724 5721 5720 5714 5710
5713 5712 5714 5707 5714 5715 5713 5713 5717 5717 5730 5733 5732 5730 5726 5728 5729 5733 5733 5729 5728 5725 5724 5723 5720 5714 5718 5717 5723 5721 5727 5734 5740 5741 5743 5741 5738 5736 5728 5726 5719 5715 5709 5707 5700